sat.trackr.live / text

‹ back to catalog

STARLINK-32875

NORAD 62951 · 2025-029D

PAYLOAD ACTIVE UNKNOWN

§ Identity

Operator
Country
US
Launch date
2025-02-11
Launch site
AFWTR
Launch vehicle
Mass (kg)
RCS (m²)

Purposes: comms

External: N2YO · Heavens-Above · Gunter

§ Orbital elements

Epoch: 2026-05-24T23:09:02.320416Z

Period
93.85 min
Inclination
53.1591°
Eccentricity
0.0001113
Mean motion
15.34398774 rev/d
Perigee alt
461.9 km
Apogee alt
463.5 km
Semi-major
6,840.8 km
B*
5.1666e-4
RAAN
235.4740°
Arg perigee
91.9578°
Mean anomaly
268.1552°
Rev number
7,304

§ Raw data

STARLINK-328751 62951U 25029D   26144.96461019  .00017119  00000+0  51666-3 0  99992 62951  53.1591 235.4740 0001113  91.9578 268.1552 15.34398774 73043

JSON: /api/v1/satellites/62951 · /tle

For live sub-satellite position, see the globe view (requires WebGL).

§ Visibility from observer

Set your observer location to see the next 7 days of passes ≥ 10°. The values pass through the URL so the page stays shareable.

No JS? Fill the form by hand. The geolocation button needs JavaScript.